Weather History for Minneapolis, MN

Change the Weather History Date:

Sunday, May 5, 2013

  Actual Average Record
Temperature  
Mean Temperature 53 °F 56 °F  
Max Temperature 67 °F 66 °F 89 °F (2000)
Min Temperature 39 °F 45 °F 27 °F (1989)
Degree Days  
Heating Degree Days 12 10  
Month to date heating degree days 107 52  
Since 1 July heating degree days 7523 7370  
Cooling Degree Days 0 1  
Month to date cooling degree days 0 3  
Year to date cooling degree days 3 8  
Growing Degree Days 2 (Base 50)    
Moisture  
Dew Point 40 °F    
Average Humidity 70    
Maximum Humidity 92    
Minimum Humidity 48    
Precipitation  
Precipitation 0.00 in 0.11 in 1.84 in (1991)
Month to date precipitation 0.63 0.55  
Year to date precipitation 10.08 6.77  
Snow  
Snow 0.00 in 0.00 in 0.30 in (1991)
Month to date snowfall 0.5 0.0  
Since 1 July snowfall 67.7 54.4  
Snow Depth 0.00 in    
Sea Level Pressure  
Sea Level Pressure 30.15 in    
Wind  
Wind Speed 6 mph (North)    
Max Wind Speed 10 mph    
Max Gust Speed 21 mph    
Visibility 10 miles    
Events      
T = Trace of Precipitation, MM = Missing Value Source: NWS Daily Summary

Daily Weather History Graph

Daily Weather History Graph

Search for Another Location

Airport:

Trip Planner

Search our weather history database for the weather conditions in past years. The results will help you decide how hot, cold, wet, or windy it might be!

Date:

Astronomy

May. 05, 2013 Rise Set
Actual Time 5:56 AM CDT 8:23 PM CDT
Civil Twilight 5:23 AM CDT 8:56 PM CDT
Nautical Twilight 4:42 AM CDT 9:37 PM CDT
Astronomical Twilight 3:56 AM CDT 10:24 PM CDT
Moon 3:38 AM CDT (5/5) 4:13 PM CDT (5/5)
Length of Visible Light 15h 32m
Length of Day
14h 27m
Waning Crescent, 18% of the Moon is Illuminated
May 5
Waning Crescent
May 9
New
May 17
First Quarter
May 24
Full
May 31
Last Quarter

Hourly Weather History & Observations

Time (CDT) Temp. Windchill Dew Point Humidity Pressure Visibility Wind Dir Wind Speed Gust Speed Precip Events Conditions
12:53 AM 41.0 °F 35.8 °F 37.0 °F 86% 30.20 in 10.0 mi North 8.1 mph - N/A   Overcast
1:07 AM 41.0 °F 35.2 °F 37.4 °F 87% 30.17 in 10.0 mi North 9.2 mph - N/A   Overcast
1:53 AM 41.0 °F 35.2 °F 37.0 °F 86% 30.17 in 10.0 mi North 9.2 mph - N/A   Overcast
2:53 AM 39.9 °F 35.8 °F 36.0 °F 86% 30.16 in 10.0 mi North 5.8 mph - N/A   Overcast
3:15 AM 39.2 °F 33.0 °F 35.6 °F 87% 30.14 in 10.0 mi North 9.2 mph - N/A   Overcast
3:53 AM 39.9 °F 34.5 °F 37.0 °F 89% 30.17 in 10.0 mi North 8.1 mph - N/A   Overcast
4:53 AM 39.9 °F 33.9 °F 36.0 °F 86% 30.17 in 10.0 mi North 9.2 mph - N/A   Overcast
5:53 AM 39.0 °F 34.8 °F 36.0 °F 89% 30.18 in 10.0 mi North 5.8 mph - N/A   Overcast
6:53 AM 39.0 °F 34.0 °F 35.1 °F 86% 30.18 in 10.0 mi North 6.9 mph - N/A   Overcast
7:53 AM 41.0 °F 35.8 °F 36.0 °F 82% 30.19 in 10.0 mi North 8.1 mph - N/A   Overcast
8:46 AM 42.8 °F 38.6 °F 35.6 °F 76% 30.17 in 10.0 mi North 6.9 mph - N/A   Overcast
8:53 AM 42.1 °F 37.7 °F 37.0 °F 82% 30.19 in 10.0 mi North 6.9 mph - N/A   Overcast
9:32 AM 44.6 °F 40.7 °F 37.4 °F 76% 30.17 in 10.0 mi North 6.9 mph - N/A   Mostly Cloudy
9:53 AM 46.0 °F 41.9 °F 37.0 °F 71% 30.19 in 10.0 mi North 8.1 mph - N/A   Mostly Cloudy
10:53 AM 48.9 °F - 37.9 °F 66% 30.18 in 10.0 mi NNE 6.9 mph - N/A   Mostly Cloudy
11:53 AM 51.1 °F - 39.0 °F 63% 30.17 in 10.0 mi NNW 5.8 mph 19.6 mph N/A   Mostly Cloudy
12:53 PM 55.4 °F - 41.0 °F 58% 30.14 in 10.0 mi Variable 4.6 mph - N/A   Mostly Cloudy
1:53 PM 59.0 °F - 43.0 °F 55% 30.14 in 10.0 mi North 5.8 mph - N/A   Mostly Cloudy
2:53 PM 62.1 °F - 44.1 °F 52% 30.12 in 10.0 mi Variable 4.6 mph - N/A   Mostly Cloudy
3:53 PM 64.0 °F - 45.0 °F 50% 30.11 in 10.0 mi NNW 6.9 mph - N/A   Scattered Clouds
4:53 PM 66.0 °F - 46.0 °F 48% 30.09 in 10.0 mi NNW 8.1 mph - N/A   Scattered Clouds
5:53 PM 66.0 °F - 46.9 °F 50% 30.09 in 10.0 mi Variable 5.8 mph - N/A   Scattered Clouds
6:53 PM 66.0 °F - 46.9 °F 50% 30.09 in 10.0 mi NNE 5.8 mph - N/A   Scattered Clouds
7:53 PM 64.0 °F - 46.9 °F 54% 30.09 in 10.0 mi NNE 6.9 mph - N/A   Scattered Clouds
8:53 PM 63.0 °F - 46.9 °F 56% 30.09 in 10.0 mi Calm Calm - N/A   Scattered Clouds
9:53 PM 62.1 °F - 46.9 °F 58% 30.09 in 10.0 mi Calm Calm - N/A   Partly Cloudy
10:53 PM 61.0 °F - 46.9 °F 60% 30.09 in 10.0 mi Calm Calm - N/A   Partly Cloudy
11:53 PM 55.0 °F - 46.0 °F 72% 30.09 in 10.0 mi North 3.5 mph - N/A   Partly Cloudy